< < Back
Terminal Aerodrome Forecast


Current Version              Previous Versions:   1  2  3  4  5  6  7  8  9  

Terminal Aerodrome Forecast

115
FTUS42 KMLB 271819 AAA
TAFDAB
TAF AMD
KDAB 271819Z 2718/2818 24014KT P6SM VCTS SCT035CB BKN050
      TEMPO 2718/2720 VRB20G30KT 3SM TSRA BKN025CB
     FM280000 27013KT P6SM VCSH BKN035
     FM280300 29011KT P6SM BKN250=

Latest METAR

586
SAUS80 KWBC 280400 RRA
MTRDAB
METAR KDAB 280353Z 29011KT 10SM FEW200 15/10 A2996 RMK AO2 SLP146
T01500100


USA.gov is the U.S. government's official web portal to all federal, state and local government web resources and services.